Find Starlink 5580

NORAD ID: 55748 Int'l Des: 2023-028 Owner: SPXS Country: US Constellation: starlink operational
LEOCIRCULAR

Live Position

Loading 3D Globe...

About Starlink 5580

Description loading...

Upcoming Passes

Passes for default location (London). Set your location on the main map for personalized predictions.

Altitude History

Loading altitude history...

Two-Line Element Set

1 55748U 23028H 26133.14301632 .00000538 00000-0 52921-4 0 9998
2 55748 69.9998 81.9883 0003366 267.4713 92.6060 14.98319589175694
Epoch: May 13, 2026 • Age: 7 hours

Current Status

Altitude 579.1 km
Velocity 7.57 km/s
Sub-Earth Point 41.41°N, 145.22°W
Launch Date Mar 3, 2023
Age 3.1 years
Type internet

Technical Details

Classification Payload
Mass 305.00 kg
Dry Mass 290.00 kg
Total Mass 305.00 kg
Length 0.20 m
Diameter 2.80 m
Span 9.00 m
Shape Box + pan
Manufacturer SPXS
Bus Type Starlink
Phase Status In Orbit
Owner/State SPXS/US

Most Searched